WN8IZV Weather Reports


Display with metric or nautical units.
time (UTC)temp
F
wind
direction
speed
MPH
gust
MPH
rain 1hr
in
rain 24hr
in
rain mn
in
humidity
%
barometer
mb
20260509194511 60 219 0.0 3.0 0.06 0.06 0.06 72 1002.8
20260509193010 58 276 1.0 16.0 0.06 0.06 0.06 72 1002.8
20260509191507 65 274 9.0 15.0 0.01 0.01 0.01 73 1003.1
20260509190006 68 175 4.0 9.0 0.00 0.00 0.00 74 1001.7
20260509184502 69 205 3.0 9.0 0.00 0.00 0.00 74 1001.4
20260509181609 71 194 5.0 10.0 0.00 0.00 0.00 75 1001.5
20260509180053 69 268 3.0 12.0 0.00 0.00 0.00 75 1002.0
20260509174553 69 219 6.0 13.0 0.00 0.00 0.00 75 1002.1
20260509173052 69 180 4.0 13.0 0.00 0.00 0.00 75 1002.0
20260509171547 68 227 4.0 13.0 0.00 0.00 0.00 75 1002.3
20260509170042 67 238 6.0 14.0 0.00 0.00 0.00 76 1002.3
20260509164539 68 184 5.0 13.0 0.00 0.00 0.00 76 1002.5
20260509163049 68 207 3.0 13.0 0.00 0.00 0.00 76 1002.6
20260509161534 68 201 6.0 15.0 0.00 0.00 0.00 77 1002.7
20260509160029 67 202 5.0 9.0 0.00 0.00 0.00 77 1002.9
20260509154524 66 187 5.0 14.0 0.00 0.00 0.00 77 1003.2
20260509153022 65 160 6.0 11.0 0.00 0.00 0.00 77 1003.0
20260509151514 64 221 5.0 12.0 0.00 0.00 0.00 77 1003.4
20260509150010 64 167 3.0 8.0 0.00 0.00 0.00 77 1003.7
20260509144507 63 195 2.0 8.0 0.00 0.00 0.00 77 1003.9
20260509143004 62 217 2.0 8.0 0.00 0.00 0.00 78 1004.0
20260509141559 60 186 1.0 7.0 0.00 0.00 0.00 78 1004.2
20260509134554 58 140 1.0 6.0 0.00 0.00 0.00 77 1004.7
20260509133057 57 205 2.0 6.0 0.00 0.00 0.00 77 1005.0
20260509131542 55 184 2.0 9.0 0.00 0.00 0.00 77 1005.1
20260509130037 54 221 1.0 6.0 0.00 0.00 0.00 77 1005.0
20260509124532 53 264 2.0 5.0 0.00 0.00 0.00 77 1004.7
20260509123029 52 206 2.0 5.0 0.00 0.00 0.00 77 1004.9
20260509121529 52 186 2.0 5.0 0.00 0.00 0.00 77 1004.9
20260509120025 51 156 2.0 7.0 0.00 0.00 0.00 76 1005.5
20260509114522 51 183 1.0 4.0 0.00 0.00 0.00 76 1005.7
20260509113020 50 232 2.0 7.0 0.00 0.00 0.00 76 1005.6
20260509111519 50 212 1.0 4.0 0.00 0.00 0.00 76 1005.6
20260509110017 49 199 1.0 4.0 0.00 0.00 0.00 75 1005.6
20260509104514 46 207 0.0 0.0 0.00 0.00 0.00 75 1005.6
20260509103013 46 207 0.0 1.0 0.00 0.00 0.00 75 1005.4
20260509101511 45 207 0.0 0.0 0.00 0.00 0.00 74 1005.2
20260509100009 45 207 0.0 0.0 0.00 0.00 0.00 74 1005.3
20260509094506 46 207 0.0 0.0 0.00 0.00 0.00 74 1005.4
20260509093002 47 207 0.0 0.0 0.00 0.00 0.00 74 1005.3
20260509091600 47 214 0.0 0.0 0.00 0.00 0.00 74 1005.5
20260509090057 47 214 0.0 0.0 0.00 0.00 0.00 74 1005.7
20260509084558 46 217 0.0 0.0 0.00 0.00 0.00 74 1005.8
20260509083051 46 219 0.0 0.0 0.00 0.00 0.00 74 1005.8
20260509081547 47 219 0.0 0.0 0.00 0.00 0.00 74 1005.8
20260509080105 48 219 0.0 0.0 0.00 0.00 0.00 74 1005.8
20260509074543 48 167 0.0 1.0 0.00 0.00 0.00 73 1005.8
20260509073117 48 128 0.0 0.0 0.00 0.00 0.00 73 1005.9
20260509071536 48 128 0.0 0.0 0.00 0.00 0.00 73 1006.1
20260509070033 48 165 0.0 0.0 0.00 0.00 0.00 73 1006.1
20260509064529 48 167 0.0 0.0 0.00 0.00 0.00 72 1006.3
20260509063030 49 179 0.0 0.0 0.00 0.00 0.00 72 1006.5
20260509061524 48 174 0.0 0.0 0.00 0.00 0.00 72 1006.6
20260509060020 48 174 0.0 0.0 0.00 0.00 0.00 72 1006.8
20260509054527 49 174 0.0 0.0 0.00 0.00 0.00 72 1007.0
20260509053013 50 174 0.0 0.0 0.00 0.00 0.00 72 1007.2
20260509051506 51 198 0.0 0.0 0.00 0.00 0.00 72 1007.2
20260509050002 52 199 0.0 1.0 0.00 0.00 0.00 71 1007.3
20260509044558 52 174 0.0 1.0 0.00 0.03 0.00 71 1007.5
20260509043058 53 202 0.0 1.0 0.00 0.03 0.00 71 1007.5
20260509041552 53 204 0.0 2.0 0.00 0.03 0.00 71 1007.4
20260509040100 53 228 0.0 2.0 0.00 0.03 0.00 71 1007.5
20260509034544 54 198 0.0 1.0 0.00 0.03 0.03 71 1007.6
20260509033043 55 224 0.0 2.0 0.00 0.03 0.03 71 1007.6
20260509031542 55 216 0.0 4.0 0.00 0.03 0.03 71 1007.7
20260509030043 56 239 1.0 3.0 0.00 0.03 0.03 70 1007.7
20260509024541 55 201 0.0 5.0 0.00 0.03 0.03 70 1007.9
20260509023036 55 231 1.0 4.0 0.00 0.03 0.03 70 1007.8
20260509021533 55 224 2.0 5.0 0.00 0.03 0.03 70 1007.6
20260509020033 56 162 1.0 5.0 0.00 0.03 0.03 69 1007.6
20260509014529 56 198 1.0 5.0 0.00 0.03 0.03 69 1007.4
20260509013042 56 178 2.0 4.0 0.00 0.03 0.03 69 1007.2
20260509011524 57 205 1.0 6.0 0.00 0.03 0.03 69 1007.1
20260509010025 57 208 1.0 7.0 0.00 0.03 0.03 69 1007.0
20260509004534 59 210 3.0 9.0 0.00 0.03 0.03 69 1006.9
20260509003017 59 225 0.0 4.0 0.00 0.03 0.03 69 1006.7
20260509001515 60 204 1.0 5.0 0.00 0.03 0.03 69 1006.8
20260509000012 60 222 2.0 6.0 0.00 0.03 0.03 69 1006.8
20260508234510 60 195 2.0 4.0 0.00 0.03 0.03 68 1006.8
20260508233008 61 160 2.0 6.0 0.00 0.03 0.03 68 1006.9
20260508231607 61 203 3.0 8.0 0.00 0.03 0.03 68 1007.0
20260508230008 61 207 3.0 10.0 0.00 0.03 0.03 68 1006.9
20260508224559 63 222 4.0 10.0 0.00 0.03 0.03 69 1007.0
20260508223057 63 186 3.0 14.0 0.00 0.03 0.03 69 1007.0
20260508221555 63 160 4.0 10.0 0.00 0.03 0.03 69 1007.1
20260508220053 63 179 3.0 8.0 0.00 0.03 0.03 69 1007.1
20260508214548 62 178 1.0 3.0 0.00 0.03 0.03 69 1007.2
20260508213040 62 49 1.0 5.0 0.00 0.03 0.03 69 1007.3
20260508211537 60 198 1.0 4.0 0.00 0.03 0.03 69 1007.6
20260508210039 60 179 1.0 4.0 0.00 0.03 0.03 68 1007.8
20260508204531 61 55 1.0 4.0 0.00 0.03 0.03 68 1007.9
20260508203026 61 67 2.0 7.0 0.00 0.03 0.03 69 1008.3
20260508201523 61 128 3.0 6.0 0.00 0.03 0.03 68 1008.6
20260508200021 61 84 1.0 8.0 0.00 0.03 0.03 68 1008.9